Slayton, MN

11:15 AM CDT on July 27, 2017 (GMT -0500)
Slayton

Weather History for KDVP - March, 2013

Change the Weather History Date:

Monday, March 4, 2013

  Actual Average (KOTG) Record (KOTG)
Temperature  
Mean Temperature 26 °F -  
Max Temperature 28 °F 26 °F 65 °F (1983)
Min Temperature 25 °F 13 °F -10 °F (1978)
Degree Days  
Heating Degree Days 38    
Moisture  
Dew Point 26 °F    
Average Humidity 98    
Maximum Humidity 100    
Minimum Humidity 81    
Precipitation  
Precipitation 0.00 in - - ()
Sea Level Pressure  
Sea Level Pressure 29.83 in    
Wind  
Wind Speed 13 mph (SE)    
Max Wind Speed 18 mph    
Max Gust Speed 25 mph    
Visibility 4 miles    
Events Fog , Snow    
Averages and records for this station are not official NWS values.
T = Trace of Precipitation, MM = Missing Value Source: NWS Daily Summary

Daily Weather History Graph

Daily Weather History Graph

Search for Another Location

Airport or City:

Trip Planner

Search our weather history database for the weather conditions in past years. The results will help you decide how hot, cold, wet, or windy it might be!

Date:

Astronomy

Mar. 04, 2013 Rise Set
Actual Time 6:54 AM CST 6:15 PM CST
Civil Twilight 6:25 AM CST 6:44 PM CST
Nautical Twilight 5:52 AM CST 7:18 PM CST
Astronomical Twilight 5:18 AM CST 7:51 PM CST
Moon 1:13 AM CST (3/4) 10:49 AM CST (3/4)
Length of Visible Light 12h 19m
Length of Day
11h 21m
Waning Gibbous, 52% of the Moon is Illuminated
Mar 4
Waning Gibbous
Mar 4
Last Quarter
Mar 11
New
Mar 19
First Quarter
Mar 27
Full

Hourly Weather History & Observations

Time (CST) Temp. Windchill Dew Point Humidity Pressure Visibility Wind Dir Wind Speed Gust Speed Precip Events Conditions
12:15 AM 25.7 °F 12.7 °F 24.8 °F 96% 29.77 in 5.0 mi ESE 17.3 mph - N/A   Overcast
12:35 AM 25.5 °F 12.4 °F 24.4 °F 96% 29.77 in 5.0 mi ESE 17.3 mph 25.3 mph N/A   Overcast
12:55 AM 25.5 °F 12.4 °F 24.4 °F 96% 29.78 in 5.0 mi SE 17.3 mph - N/A   Overcast
1:15 AM 25.5 °F 12.4 °F 24.6 °F 96% 29.77 in 5.0 mi ESE 17.3 mph - N/A   Overcast
1:54 AM 25.5 °F 12.4 °F 24.6 °F 96% 29.76 in 5.0 mi SE 17.3 mph - N/A   Overcast
2:15 AM 25.7 °F 13.5 °F 24.6 °F 96% 29.76 in 7.0 mi SE 15.0 mph - N/A   Overcast
2:35 AM 25.7 °F 12.7 °F 24.6 °F 96% 29.75 in 7.0 mi SE 17.3 mph - N/A   Overcast
2:55 AM 25.7 °F 14.0 °F 24.6 °F 96% 29.75 in 7.0 mi ESE 13.8 mph - N/A   Overcast
3:15 AM 25.7 °F 12.3 °F 24.6 °F 96% 29.74 in 7.0 mi ESE 18.4 mph - N/A   Overcast
3:35 AM 25.5 °F 13.8 °F 24.4 °F 96% 29.75 in 7.0 mi ESE 13.8 mph - N/A   Overcast
3:55 AM 25.5 °F 12.9 °F 24.4 °F 96% 29.74 in 7.0 mi ESE 16.1 mph - N/A   Overcast
4:15 AM 25.5 °F 13.8 °F 24.6 °F 96% 29.75 in 7.0 mi SE 13.8 mph - N/A   Overcast
4:36 AM 25.7 °F 13.5 °F 24.6 °F 96% 29.76 in 7.0 mi SE 15.0 mph - N/A   Overcast
4:55 AM 25.7 °F 13.1 °F 24.8 °F 96% 29.76 in 7.0 mi SE 16.1 mph - N/A   Overcast
5:15 AM 25.7 °F 14.0 °F 24.8 °F 96% 29.77 in 7.0 mi SE 13.8 mph - N/A   Overcast
5:35 AM 25.7 °F 12.3 °F 24.8 °F 96% 29.77 in 7.0 mi SE 18.4 mph - N/A   Overcast
5:55 AM 25.7 °F 12.7 °F 24.8 °F 96% 29.77 in 7.0 mi SE 17.3 mph 21.9 mph N/A   Overcast
6:15 AM 25.7 °F 13.5 °F 24.8 °F 96% 29.78 in 7.0 mi SE 15.0 mph - N/A   Overcast
6:35 AM 25.7 °F 14.6 °F 24.8 °F 96% 29.78 in 7.0 mi SE 12.7 mph - N/A   Overcast
6:55 AM 25.7 °F 13.1 °F 24.8 °F 96% 29.77 in 7.0 mi SE 16.1 mph - N/A   Overcast
7:15 AM 25.7 °F 13.5 °F 24.8 °F 96% 29.77 in 7.0 mi SE 15.0 mph - N/A   Overcast
7:55 AM 25.7 °F 14.0 °F 25.2 °F 98% 29.79 in 5.0 mi SE 13.8 mph - N/A   Overcast
8:15 AM 26.1 °F 15.0 °F 25.5 °F 98% 29.79 in 4.0 mi ESE 12.7 mph - N/A   Overcast
8:35 AM 26.1 °F 14.5 °F 25.5 °F 98% 29.79 in 3.0 mi SE 13.8 mph - N/A   Overcast
8:55 AM 26.2 °F 14.2 °F 25.7 °F 98% 29.79 in 3.0 mi SE 15.0 mph - N/A   Overcast
9:15 AM 26.4 °F 15.0 °F 26.1 °F 99% 29.80 in 2.5 mi SE 13.8 mph - N/A   Overcast
9:35 AM 26.4 °F 15.5 °F 26.1 °F 99% 29.79 in 2.0 mi SE 12.7 mph - N/A   Overcast
9:55 AM 26.6 °F 16.2 °F 26.2 °F 99% 29.79 in 2.0 mi SE 11.5 mph - N/A   Overcast
10:15 AM 26.8 °F 16.5 °F 26.4 °F 99% 29.80 in 2.0 mi SE 11.5 mph - N/A   Overcast
10:35 AM 26.6 °F 15.2 °F 26.4 °F 99% 29.81 in 1.8 mi SE 13.8 mph - N/A   Overcast
10:55 AM 27.1 °F 17.5 °F 26.6 °F 98% 29.81 in 1.8 mi SE 10.4 mph - N/A   Overcast
11:15 AM 27.3 °F 17.7 °F 27.0 °F 99% 29.82 in 1.5 mi SE 10.4 mph - N/A   Overcast
11:35 AM 27.5 °F 16.8 °F 27.3 °F 99% 29.82 in 1.2 mi SE 12.7 mph - N/A   Overcast
11:55 AM 27.5 °F 18.0 °F 27.3 °F 99% 29.82 in 1.2 mi SE 10.4 mph - N/A   Overcast
12:15 PM 28.0 °F 19.3 °F 27.5 °F 98% 29.83 in 1.2 mi SE 9.2 mph - N/A   Overcast
12:55 PM 27.5 °F 19.3 °F 27.5 °F 100% 29.83 in 1.0 mi SE 8.1 mph - N/A   Overcast
1:15 PM 27.7 °F 18.8 °F 27.7 °F 100% 29.83 in 1.0 mi SE 9.2 mph - N/A   Overcast
1:34 PM 27.9 °F 19.8 °F 27.9 °F 100% 29.83 in 1.0 mi SE 8.1 mph - N/A   Overcast
1:55 PM 27.9 °F 19.8 °F 27.9 °F 100% 29.83 in 1.0 mi SE 8.1 mph - N/A   Overcast
2:15 PM 28.2 °F 20.2 °F 28.2 °F 100% 29.82 in 1.0 mi SE 8.1 mph - N/A   Overcast
2:34 PM 28.4 °F 20.4 °F 28.4 °F 100% 29.83 in 1.0 mi SE 8.1 mph - N/A Snow Light Snow
2:55 PM 28.2 °F 21.0 °F 28.2 °F 100% 29.83 in 1.0 mi SE 6.9 mph - N/A   Overcast
3:15 PM 28.2 °F 21.0 °F 28.4 °F 100% 29.83 in 1.2 mi SE 6.9 mph - N/A Snow Light Snow
3:35 PM 28.0 °F 20.0 °F 28.2 °F 100% 29.83 in 0.8 mi ESE 8.1 mph - N/A Snow Light Snow
3:55 PM 28.0 °F 20.0 °F 28.0 °F 100% 29.84 in 1.2 mi ESE 8.1 mph - N/A Snow Light Snow
4:15 PM 28.2 °F 20.2 °F 28.0 °F 99% 29.84 in 1.8 mi ESE 8.1 mph - N/A   Overcast
4:35 PM 28.0 °F 20.8 °F 27.7 °F 99% 29.84 in 1.8 mi ESE 6.9 mph - N/A   Overcast
4:55 PM 27.5 °F 21.1 °F 27.5 °F 100% 29.85 in 1.0 mi ESE 5.8 mph - N/A   Overcast
5:15 PM 27.5 °F 20.2 °F 27.5 °F 100% 29.86 in 0.8 mi ESE 6.9 mph - N/A   Overcast
5:35 PM 27.5 °F 21.1 °F 27.5 °F 100% 29.88 in 1.0 mi SE 5.8 mph - N/A   Overcast
5:55 PM - - - N/A% 29.88 in 1.0 mi SE 6.9 mph - N/A   Overcast
6:15 PM - - - N/A% 29.91 in 1.8 mi SSE 6.9 mph - N/A   Overcast
6:35 PM 27.5 °F 21.1 °F 27.5 °F 100% 29.92 in 1.2 mi SSE 5.8 mph - N/A   Overcast
6:55 PM 27.5 °F 21.1 °F 27.7 °F 100% 29.91 in 1.2 mi SE 5.8 mph - N/A   Overcast
7:15 PM 27.5 °F 19.3 °F 27.9 °F 100% 29.90 in 0.8 mi ESE 8.1 mph - N/A   Overcast
7:35 PM 27.5 °F 20.2 °F 27.7 °F 100% 29.92 in 0.5 mi SE 6.9 mph - N/A Fog Light Freezing Fog
7:54 PM 27.5 °F 20.2 °F 27.9 °F 100% 29.93 in 0.8 mi SSE 6.9 mph - N/A   Overcast
8:15 PM 27.5 °F 19.3 °F 27.9 °F 100% 29.94 in 0.8 mi SSE 8.1 mph - N/A   Overcast
8:35 PM 27.9 °F 22.6 °F 28.0 °F 100% 29.94 in 0.8 mi South 4.6 mph - N/A   Overcast
8:54 PM 27.9 °F 20.6 °F 28.0 °F 100% 29.94 in 0.8 mi SSE 6.9 mph - N/A   Overcast
9:15 PM 27.9 °F 21.5 °F 28.0 °F 100% 29.94 in 1.8 mi SSE 5.8 mph - N/A   Overcast
9:35 PM 27.9 °F 22.6 °F 28.0 °F 100% 29.93 in 2.5 mi South 4.6 mph - N/A   Mostly Cloudy
9:55 PM 27.5 °F 21.1 °F 27.9 °F 100% 29.93 in 2.5 mi SSW 5.8 mph - N/A   Overcast
10:15 PM 27.9 °F 19.8 °F 28.0 °F 100% 29.93 in 3.0 mi SW 8.1 mph - N/A Snow Light Snow
10:35 PM 28.2 °F 20.2 °F 28.4 °F 100% 29.92 in 4.0 mi SW 8.1 mph - N/A   Overcast
10:55 PM 28.0 °F 21.7 °F 28.0 °F 100% 29.92 in 7.0 mi SW 5.8 mph - N/A   Overcast
11:15 PM 27.9 °F 20.6 °F 26.2 °F 94% 29.92 in 7.0 mi WSW 6.9 mph - N/A   Overcast
11:35 PM 28.0 °F 18.1 °F 23.0 °F 81% 29.92 in 10.0 mi WSW 11.5 mph - N/A   Overcast
11:55 PM 27.1 °F 16.9 °F 22.6 °F 83% 29.93 in 10.0 mi West 11.5 mph - N/A   Overcast